Location: Champs
(48.8539°N, 2.6040°E)
Time: 13:00:35
(UTC+00:00)

Cosmos 2360 Rocket - Pass Details

Date: 26 October 2021
Orbit: 832 x 846 km, 71.0° (Epoch: 07 December)

Event Time Altitude Azimuth Distance (km) Brightness Sun altitude
Exits shadow 02:56:26 42° 79° (E) 1,190 3.2 -34.7°
Drops below altitude 10° 03:00:58 10° 127° (SE) 2,466 4.9 -34.0°
Sets 03:03:31 0° 133° (SE) 3,396 5.6 -33.6°
